[[{"header":{"parameterUnit":"m.s-1","parameterCategory":1,"la1":30.2991,"la2":30.254,"lo1":-89.0895,"lo2":-89.0444,"dy":0.0017,"dx":0.0017,"nx":28,"ny":28,"refTime":"2025-09-08T03:00:00:Z","depth":0,"parameterNumber":2,"parameterNumberName":"U-component_of_WINDS"},"data":[0,0,0,0,0,0,0,0,0,0,0,0,0,0,0,0,0,0,0,0,0,0,0,0,0,0,0,0,0,0,0,0,0,0,0,0,0,0,0,0,0,0,0,0,0,0,0,0,0,0,0,0,0,0,0,0,0,0,-0.5918,-0.5918,0,-0.5912,-0.5912,-0.5912,-0.5899,-0.5898,-0.5898,-0.5898,-0.5892,-0.5892,-0.5892,0,0,0,0,0,0,0,0,0,0,0,0,0,-0.5917,-0.5918,-0.5918,-0.5918,-0.5918,-0.5912,-0.5912,-0.5912,-0.5899,-0.5898,-0.5898,-0.5898,-0.5892,-0.5892,-0.5892,0,0,0,0,0,0,0,0,0,0,0,0,0,-0.5915,-0.5918,-0.5918,-0.591,-0.591,-0.5912,-0.5912,-0.5912,-0.5899,-0.5898,-0.5898,-0.5898,-0.5892,-0.5892,-0.5892,-0.59,0,0,-0.5892,-0.5892,0,0,0,0,0,0,0,0,-0.5915,-0.5915,-0.5912,-0.5911,-0.591,-0.5906,-0.5909,-0.5908,-0.5899,-0.5903,-0.5898,-0.5897,-0.5897,-0.5896,-0.5896,-0.59,-0.59,-0.5892,-0.5892,-0.5892,-0.5892,0,0,0,0,0,0,0,-0.5915,-0.5915,-0.5915,-0.5912,-0.5911,-0.5907,-0.5907,-0.5909,-0.5902,-0.5903,-0.5902,-0.5901,-0.5896,-0.5896,-0.5896,-0.59,-0.5892,-0.5892,-0.5892,-0.5892,-0.591,-0.591,0,0,0,0,0,0,-0.5917,-0.5916,-0.5916,-0.5915,-0.5912,-0.5908,-0.5907,-0.5907,-0.5902,-0.5901,-0.5901,-0.5901,-0.5896,-0.5896,-0.5896,-0.5905,-0.5892,-0.5892,-0.5892,-0.591,-0.591,-0.591,0,0,0,0,0,0,-0.5917,-0.5917,-0.5916,-0.5915,-0.5915,-0.5908,-0.5909,-0.5908,-0.5907,-0.5901,-0.59,-0.5903,-0.5896,-0.5895,-0.5899,-0.5905,-0.5892,-0.5893,-0.5909,-0.591,-0.591,-0.5924,0,0,0,0,0,0,-0.5917,-0.5917,-0.592,-0.5915,-0.5915,-0.592,-0.5909,-0.5908,-0.5908,-0.5906,-0.5902,-0.5901,-0.5895,-0.5899,-0.5899,-0.5905,-0.5893,-0.5909,-0.5909,-0.591,-0.5923,-0.5925,-0.5927,0,0,0,0,0,-0.5917,-0.5925,-0.5921,-0.5921,-0.5919,-0.592,-0.592,-0.5914,-0.5908,-0.5911,-0.5907,-0.5901,-0.5904,-0.59,-0.59,-0.5905,-0.5908,-0.5909,-0.591,-0.5922,-0.5925,-0.5927,0,0,0,0,0,0,-0.5931,-0.5924,-0.5919,-0.5926,-0.5924,-0.5918,-0.5922,-0.5916,-0.5916,-0.5915,-0.5907,-0.5906,-0.5911,-0.5908,-0.5903,-0.5913,-0.5905,-0.5906,-0.5914,-0.5917,-0.5918,-0.5919,-0.5893,0,0,0,0,0,-0.5934,-0.5936,-0.593,-0.5936,-0.5935,-0.5929,-0.5929,-0.5924,-0.5922,-0.5921,-0.5917,-0.5915,-0.5915,-0.5916,-0.5916,-0.5923,-0.5921,-0.5926,-0.5928,-0.593,-0.5931,-0.5934,-0.5936,-0.5913,-0.5913,-0.5913,0,0,-0.5942,-0.5939,-0.594,-0.5939,-0.5937,-0.5938,-0.5928,-0.5931,-0.5932,-0.5921,-0.5925,-0.5922,-0.5919,-0.5924,-0.5926,-0.5922,-0.5936,-0.5931,-0.5932,-0.5932,-0.5935,-0.5937,-0.5939,-0.5914,-0.5914,-0.5914,0,0,-0.5957,-0.5955,-0.596,-0.5958,-0.5954,-0.595,-0.5951,-0.5946,-0.5944,-0.5947,-0.5939,-0.594,-0.5941,-0.5939,-0.5938,-0.5952,-0.5946,-0.5952,-0.5962,-0.5965,-0.5967,-0.5968,-0.5973,-0.5975,-0.5953,-0.5953,-0.5953,0,-0.5968,-0.597,-0.5963,-0.5966,-0.5965,-0.5955,-0.596,-0.5958,-0.5955,-0.5955,-0.595,-0.5951,-0.5948,-0.5953,-0.5956,-0.5956,-0.5956,-0.5953,-0.5967,-0.5968,-0.597,-0.5974,-0.5976,-0.5954,-0.5954,-0.5953,-0.5953,0,-0.5983,-0.5985,-0.5989,-0.5986,-0.5986,-0.5989,-0.5982,-0.5983,-0.5978,-0.5974,-0.5977,-0.5973,-0.5972,-0.5973,-0.5968,-0.5977,-0.5974,-0.5968,-0.596,-0.5973,-0.5977,-0.5979,-0.5955,-0.5954,-0.5954,-0.5954,0,0,-0.6007,-0.6,-0.6002,-0.6,-0.5995,-0.5996,-0.5999,-0.5998,-0.5999,-0.5997,-0.5999,-0.6,-0.5994,-0.5993,-0.5988,-0.5991,-0.6001,-0.5984,-0.5984,-0.5988,-0.6011,-0.6015,-0.6018,-0.5997,-0.5998,-0.5998,-0.6011,0,-0.6022,-0.6027,-0.602,-0.6026,-0.6027,-0.6018,-0.602,-0.6018,-0.6014,-0.6014,-0.601,-0.601,-0.6003,-0.6002,-0.6004,-0.6,-0.6006,-0.5999,-0.5999,-0.5999,-0.6001,-0.602,-0.6025,-0.6037,-0.6012,-0.6013,-0.6013,0,-0.6039,-0.6038,-0.6044,-0.6039,-0.6039,-0.6042,-0.604,-0.604,-0.6037,-0.6034,-0.6032,-0.6026,-0.6028,-0.602,-0.6023,-0.6018,-0.6018,-0.6015,-0.6016,-0.6016,-0.6007,-0.6021,-0.6041,-0.6043,-0.6015,-0.6015,-0.6015,0,-0.6057,-0.6056,-0.606,-0.6059,-0.6053,-0.6055,-0.6052,-0.6048,-0.6048,-0.6046,-0.6046,-0.6044,-0.6043,-0.6042,-0.6035,-0.603,-0.6039,-0.6031,-0.6037,-0.6037,-0.6039,-0.6039,-0.6061,-0.6039,-0.6039,-0.6039,-0.6039,0,-0.6074,-0.6078,-0.6068,-0.607,-0.6075,-0.6067,-0.6071,-0.6067,-0.6064,-0.6065,-0.6057,-0.6058,-0.6049,-0.6049,-0.6044,-0.6047,-0.6047,-0.6044,-0.6043,-0.6045,-0.6045,-0.6045,-0.6044,-0.6039,-0.6039,-0.6039,-0.6039,0,-0.6094,-0.6087,-0.6091,-0.6084,-0.6083,-0.6086,-0.6081,-0.6082,-0.6078,-0.6079,-0.6079,-0.6072,-0.6072,-0.6065,-0.6063,-0.6059,-0.6065,-0.6062,-0.6066,-0.6065,-0.6072,-0.6071,-0.6094,-0.6096,-0.6072,-0.6073,-0.6073,0,-0.6106,-0.6109,-0.6102,-0.6103,-0.61,-0.6101,-0.61,-0.6092,-0.6092,-0.6088,-0.609,-0.6089,-0.6088,-0.6088,-0.6082,-0.6081,-0.6078,-0.6086,-0.6078,-0.608,-0.6078,-0.6078,-0.6079,-0.6088,-0.6088,-0.6088,-0.6088,0,-0.6127,-0.6123,-0.6123,-0.6121,-0.6121,-0.6119,-0.6117,-0.6117,-0.6108,-0.6108,-0.6108,-0.6107,-0.6105,-0.6104,-0.6102,-0.6099,-0.6092,-0.6091,-0.6092,-0.6095,-0.6098,-0.6096,-0.6071,-0.6091,-0.609,-0.609,-0.609,-0.609,-0.6143,-0.6146,-0.6141,-0.6141,-0.6138,-0.6136,-0.6137,-0.6133,-0.6132,-0.613,-0.6125,-0.6126,-0.6121,-0.6117,-0.6115,-0.6115,-0.6111,-0.6113,-0.6113,-0.6114,-0.6115,-0.6097,-0.6114,-0.6114,-0.6114,-0.6114,-0.6114,0,-0.6164,-0.6161,-0.6161,-0.6158,-0.6157,-0.6151,-0.6147,-0.6148,-0.6148,-0.6145,-0.6144,-0.6143,-0.6142,-0.6136,-0.6134,-0.6135,-0.6132,-0.6135,-0.6135,-0.6135,-0.6119,-0.6118,-0.6138,-0.6138,-0.6138,-0.6138,-0.6138,-0.6138,-0.6175,-0.6178,-0.6174,-0.6176,-0.6172,-0.6173,-0.6172,-0.617,-0.6167,-0.6167,-0.6166,-0.6162,-0.6157,-0.6155,-0.6153,-0.6152,-0.6151,-0.6155,-0.6153,-0.6138,-0.6136,-0.6134,-0.6133,-0.6155,-0.6155,-0.6169,-0.6169,-0.6169]},{"header":{"parameterUnit":"m.s-1","parameterCategory":1,"la1":30.2991,"la2":30.254,"lo1":-89.0895,"lo2":-89.0444,"dy":0.0017,"dx":0.0017,"nx":28,"ny":28,"refTime":"2025-09-08T03:00:00:Z","depth":0,"parameterNumber":3,"parameterNumberName":"V-component_of_WINDS"},"data":[0,0,0,0,0,0,0,0,0,0,0,0,0,0,0,0,0,0,0,0,0,0,0,0,0,0,0,0,0,0,0,0,0,0,0,0,0,0,0,0,0,0,0,0,0,0,0,0,0,0,0,0,0,0,0,0,0,0,-3.3613,-3.3613,0,-3.3609,-3.3609,-3.3609,-3.3577,-3.3576,-3.3576,-3.3575,-3.3567,-3.3568,-3.3568,0,0,0,0,0,0,0,0,0,0,0,0,0,-3.3592,-3.3592,-3.3613,-3.3613,-3.3613,-3.3609,-3.3609,-3.3609,-3.3577,-3.3576,-3.3575,-3.3575,-3.3567,-3.3568,-3.3568,0,0,0,0,0,0,0,0,0,0,0,0,0,-3.3596,-3.3593,-3.3613,-3.3597,-3.3595,-3.3609,-3.3609,-3.3609,-3.3578,-3.3576,-3.3575,-3.3574,-3.3567,-3.3568,-3.3569,-3.3596,0,0,-3.3571,-3.3571,0,0,0,0,0,0,0,0,-3.3595,-3.3596,-3.3599,-3.3598,-3.3596,-3.3592,-3.3599,-3.3604,-3.3578,-3.3584,-3.3575,-3.3574,-3.3576,-3.3576,-3.3578,-3.3596,-3.3595,-3.3571,-3.3571,-3.3572,-3.3572,0,0,0,0,0,0,0,-3.3595,-3.3596,-3.3611,-3.3599,-3.3597,-3.3589,-3.3588,-3.3599,-3.3587,-3.3584,-3.3581,-3.3581,-3.3575,-3.3577,-3.3578,-3.3595,-3.3571,-3.3572,-3.3572,-3.3572,-3.3638,-3.364,0,0,0,0,0,0,-3.3598,-3.3596,-3.3611,-3.3611,-3.3593,-3.3591,-3.359,-3.3595,-3.3586,-3.3584,-3.3582,-3.358,-3.3577,-3.3577,-3.3577,-3.3611,-3.3572,-3.3572,-3.3573,-3.3637,-3.3639,-3.364,0,0,0,0,0,0,-3.3597,-3.3599,-3.3611,-3.3603,-3.3604,-3.3592,-3.3598,-3.3595,-3.3597,-3.3586,-3.3583,-3.3587,-3.3576,-3.3576,-3.3593,-3.3611,-3.3573,-3.3573,-3.3636,-3.3638,-3.3639,-3.3678,0,0,0,0,0,0,-3.3597,-3.3599,-3.361,-3.3604,-3.3605,-3.3628,-3.3599,-3.3596,-3.3599,-3.3596,-3.3589,-3.3587,-3.3575,-3.3592,-3.3593,-3.3611,-3.3574,-3.3634,-3.3637,-3.3639,-3.3676,-3.3682,-3.3687,0,0,0,0,0,-3.3596,-3.362,-3.3611,-3.3613,-3.3618,-3.3629,-3.3629,-3.3616,-3.3601,-3.3611,-3.3604,-3.3587,-3.3608,-3.3594,-3.3595,-3.3613,-3.3633,-3.3636,-3.3639,-3.3673,-3.368,-3.3686,0,0,0,0,0,0,-3.3626,-3.3618,-3.3608,-3.3631,-3.3631,-3.3623,-3.3636,-3.3623,-3.3627,-3.3623,-3.3606,-3.3604,-3.3624,-3.362,-3.3604,-3.3641,-3.3618,-3.3621,-3.3643,-3.365,-3.3655,-3.3657,-3.3575,0,0,0,0,0,-3.3636,-3.3646,-3.3638,-3.3659,-3.3659,-3.3648,-3.3652,-3.3642,-3.3641,-3.364,-3.3634,-3.3633,-3.364,-3.3644,-3.3649,-3.3674,-3.3674,-3.3688,-3.3693,-3.3698,-3.3701,-3.3717,-3.3724,-3.365,-3.365,-3.365,0,0,-3.3655,-3.3652,-3.3659,-3.3665,-3.3664,-3.3675,-3.3648,-3.366,-3.3668,-3.3642,-3.3658,-3.3654,-3.3651,-3.3673,-3.3682,-3.367,-3.3722,-3.3702,-3.3705,-3.3706,-3.3721,-3.3728,-3.3734,-3.3652,-3.3651,-3.3651,0,0,-3.3697,-3.3695,-3.3713,-3.3713,-3.3713,-3.3705,-3.371,-3.3705,-3.3702,-3.3718,-3.3699,-3.3708,-3.3719,-3.3719,-3.372,-3.3764,-3.375,-3.3766,-3.3796,-3.3811,-3.3817,-3.3822,-3.384,-3.3846,-3.377,-3.377,-3.377,0,-3.3721,-3.3737,-3.3724,-3.3738,-3.3742,-3.372,-3.3739,-3.3739,-3.374,-3.3743,-3.3729,-3.3745,-3.3741,-3.3764,-3.3776,-3.3776,-3.3782,-3.3768,-3.3817,-3.3822,-3.3827,-3.3844,-3.385,-3.3772,-3.3772,-3.3771,-3.3771,0,-3.3768,-3.378,-3.3794,-3.3799,-3.3803,-3.382,-3.3809,-3.3815,-3.3805,-3.3799,-3.3817,-3.3812,-3.3818,-3.3822,-3.3811,-3.3844,-3.3837,-3.3821,-3.3797,-3.3837,-3.3852,-3.3858,-3.3775,-3.3774,-3.3774,-3.3773,0,0,-3.3828,-3.3826,-3.3832,-3.3834,-3.3833,-3.3842,-3.3858,-3.3864,-3.3872,-3.3873,-3.3886,-3.3897,-3.3884,-3.3885,-3.3874,-3.3887,-3.3926,-3.387,-3.3869,-3.3882,-3.3964,-3.3978,-3.3986,-3.3915,-3.3917,-3.3917,-3.3965,0,-3.387,-3.3898,-3.3888,-3.3917,-3.3929,-3.3909,-3.3923,-3.3924,-3.3919,-3.3928,-3.3922,-3.3931,-3.3911,-3.3912,-3.3924,-3.3919,-3.3942,-3.3915,-3.3929,-3.3929,-3.3932,-3.3993,-3.4007,-3.4053,-3.3971,-3.3972,-3.3973,0,-3.3922,-3.3929,-3.396,-3.396,-3.3964,-3.3977,-3.3984,-3.3992,-3.3993,-3.3989,-3.3992,-3.3979,-3.3995,-3.3971,-3.3993,-3.3974,-3.3979,-3.3977,-3.3979,-3.3981,-3.3955,-3.3999,-3.4067,-3.4074,-3.3982,-3.3981,-3.398,0,-3.3966,-3.3982,-3.4004,-3.4006,-3.4005,-3.4015,-3.4015,-3.4015,-3.4021,-3.4026,-3.403,-3.4036,-3.404,-3.4045,-3.4034,-3.4017,-3.4059,-3.4033,-3.4056,-3.4057,-3.4067,-3.4067,-3.4138,-3.4067,-3.4067,-3.4067,-3.4067,0,-3.4015,-3.4036,-3.4024,-3.4037,-3.406,-3.4047,-3.407,-3.4067,-3.4068,-3.408,-3.4062,-3.4075,-3.4059,-3.4069,-3.406,-3.4081,-3.4082,-3.408,-3.4078,-3.4083,-3.4084,-3.4087,-3.4084,-3.4069,-3.4068,-3.4068,-3.4068,0,-3.4069,-3.4061,-3.4084,-3.4082,-3.4082,-3.4099,-3.4098,-3.411,-3.4104,-3.4121,-3.4124,-3.4115,-3.4127,-3.4116,-3.4127,-3.4121,-3.415,-3.4142,-3.4151,-3.4149,-3.4174,-3.4173,-3.4252,-3.4262,-3.4182,-3.4183,-3.4184,0,-3.4101,-3.4117,-3.4118,-3.4126,-3.4128,-3.4141,-3.4147,-3.4135,-3.4142,-3.4146,-3.4159,-3.4169,-3.4177,-3.4197,-3.4191,-3.42,-3.4193,-3.422,-3.4194,-3.42,-3.4197,-3.4197,-3.4199,-3.4226,-3.4227,-3.4228,-3.4228,0,-3.4161,-3.4158,-3.4168,-3.4179,-3.4188,-3.4194,-3.42,-3.4207,-3.4195,-3.4204,-3.4217,-3.4224,-3.4236,-3.4248,-3.4255,-3.4254,-3.424,-3.4237,-3.4243,-3.4249,-3.4255,-3.4255,-3.4167,-3.4235,-3.4235,-3.4234,-3.4234,-3.4233,-3.4207,-3.4221,-3.4225,-3.4238,-3.4241,-3.4248,-3.426,-3.4257,-3.4269,-3.4279,-3.4271,-3.4287,-3.4289,-3.4297,-3.4299,-3.4311,-3.43,-3.4308,-3.4311,-3.4313,-3.4318,-3.4252,-3.4312,-3.4312,-3.4311,-3.4311,-3.4311,0,-3.4268,-3.427,-3.4282,-3.4292,-3.4303,-3.429,-3.4296,-3.4305,-3.432,-3.4324,-3.4333,-3.4349,-3.4361,-3.4357,-3.4367,-3.4378,-3.4372,-3.4381,-3.4381,-3.4382,-3.4327,-3.4321,-3.4386,-3.4386,-3.4386,-3.4386,-3.4386,-3.4386,-3.4301,-3.4326,-3.4323,-3.4349,-3.435,-3.4368,-3.4373,-3.4378,-3.4382,-3.4401,-3.4411,-3.4409,-3.441,-3.4421,-3.4431,-3.4429,-3.4435,-3.4447,-3.4444,-3.4393,-3.4385,-3.4378,-3.4373,-3.4448,-3.4448,-3.4498,-3.4499,-3.4499]}]]